www.pogodaiklimat.ru

Погода и климат >> Архив погоды >> Финляндия >> Куопио Маанинка


ПОГОДА в Куопио Маанинка

  • Прогноз погоды в Куопио Маанинка
  • Монитор погоды в Куопио Маанинка

АРХИВ ПОГОДЫ в Куопио Маанинка

Время (UTC), дата Ветер
(напр.,м/с)
 
Видим.   Явления Облачность Т
(С)
Тd
(С)
f
(%)
Тe
(С)
Тes
(С)
Комфортность P
(гПа)
Po
(гПа)
Тmin
(С)
Tmax
(С)
R
(мм)
R24
(мм)
S
(см)
01 15.08 ЮЗ 3-6
{6}
н/о н/о +12.3 +11.3 94 +11 +11 1003.5 992.6
02 15.08 ЮЗ 4-7
{8}
н/о н/о +11.8 +11.1 95 +10 +10 1003.5 992.6 1
03 15.08 ЮЗ 3-5
{6}
н/о н/о +11.9 +11.3 96 +10 +10 1003.6 992.7 3
04 15.08 ЮЗ 4-6
{6}
н/о н/о +11.9 +11.3 96 +10 +10 1003.6 992.7 1
05 15.08 ЮЗ 4-5
{7}
н/о н/о +12.1 +11.1 94 +10 +10 1003.8 992.8 0.1
06 15.08 ЮЗ 3-5
{5}
н/о н/о +12.5 +11.3 92 +11 +11 1003.7 992.8 +11.7 +13.2 6
07 15.08 ЮЗ 4 н/о н/о +12.7 +11.3 91 +11 +11 1003.7 992.8
08 15.08 ЮЗ 5-5
{7}
н/о н/о +13.2 +10.4 83 +11 +11 1003.6 992.7
09 15.08 ЮЗ 4-6
{7}
н/о н/о +12.9 +10.8 87 +11 +11 1003.7 992.8
10 15.08 ЮЗ 2 н/о н/о +13.3 +11.3 88 +13 +13 1003.6 992.8
11 15.08 ЮЗ 1-3
{5}
н/о н/о +13.5 +11.5 88 +14 +14 1003.6 992.8 0.2
12 15.08 ЮЗ 4-8
{8}
н/о н/о +12.6 +11.7 94 +11 +11 1003.6 992.8 6
13 15.08 ЮЗ 3 н/о н/о +14.4 +12.1 86 +13 +13 1003.7 992.9
14 15.08 ЮЗ 1-4
{7}
н/о н/о +14.6 +13.0 90 +15 +15 1004.0 993.2 0.3
15 15.08 ЮЗ 4-8
{8}
н/о н/о +15.4 +12.3 82 +14 +14 1004.2 993.4
16 15.08 ЮЗ 5 н/о н/о +14.5 +11.7 83 +13 +13 1004.6 993.8
17 15.08 З 4-7
{7}
н/о н/о +14.0 +12.2 89 +12 +12 1005.0 994.1
18 15.08 З 4-5
{12}
н/о н/о +13.2 +12.1 93 +11 +11 1005.7 994.8 +12.3 +15.5 8
19 15.08 З 5-6
{8}
н/о н/о +13.0 +11.6 91 +11 +11 1006.0 995.1
20 15.08 ЮЗ 4-6
{7}
н/о н/о +13.0 +11.4 90 +11 +11 1006.5 995.6
21 15.08 ЮЗ 5-7
{7}
н/о н/о +13.0 +11.2 89 +11 +11 1007.0 996.1
22 15.08 ЮЗ 3 н/о н/о +12.9 +11.0 88 +11 +11 1007.2 996.3
23 15.08 З 5 н/о н/о +13.0 +10.7 86 +11 +11 1007.5 996.6
00 16.08 ЮЗ 5-6
{7}
н/о н/о +13.0 +10.6 85 +11 +11 1007.9 997.0
01 16.08 ЮЗ 4 н/о н/о +12.9 +10.6 86 +11 +11 1008.2 997.3
02 16.08 ЮЗ 5-6
{7}
н/о н/о +13.0 +10.5 85 +11 +11 1008.7 997.7
03 16.08 ЮЗ 4-6
{7}
н/о н/о +13.1 +10.2 83 +11 +11 1008.8 997.9
04 16.08 ЮЗ 5 н/о н/о +13.3 +10.3 82 +11 +11 1009.2 998.3
05 16.08 ЮЗ 4-7
{7}
н/о н/о +13.3 +10.3 82 +12 +12 1009.7 998.8
06 16.08 ЮЗ 4-7
{7}
н/о н/о +14.2 +10.7 79 +13 +13 1010.1 999.2 +12.8 +14.2
07 16.08 ЮЗ 4-8
{8}
н/о н/о +15.0 +10.8 76 +14 +14 1010.3 999.4
08 16.08 З 5 н/о н/о +16.8 +10.1 65 +16 +16 1010.4 999.5
09 16.08 З 7-10
{11}
н/о н/о +17.3 +7.8 54 +16 +16 1010.9 1000.1
10 16.08 З 6-11
{11}
н/о н/о +18.1 +8.3 53 +18 +18 1011.1 1000.3
11 16.08 З 6 н/о н/о +18.2 +8.0 51 +18 +18 1011.3 1000.5
12 16.08 З 7-10
{10}
н/о н/о +19.5 +8.1 48 +20 +20 1011.4 1000.7
13 16.08 З 7 н/о н/о +19.3 +6.9 44 +19 +19 1011.5 1000.8
14 16.08 З 4 н/о н/о +19.6 +8.2 48 +21 +21 комфорт 1011.8 1001.1
15 16.08 З 3-5
{6}
н/о н/о +19.8 +8.8 49 +21 +21 комфорт 1011.8 1001.1
16 16.08 З 4 н/о н/о +20.1 +8.6 47 +21 +21 комфорт 1011.9 1001.2
17 16.08 ЮЗ 1-2
{5}
н/о н/о +18.9 +9.4 54 +21 +21 комфорт 1012.2 1001.5
18 16.08 Ю 1-2
{2}
н/о н/о +14.9 +10.4 74 +15 +15 1012.6 1001.7 +14.2 +20.9
19 16.08 Ю 1 н/о н/о +13.6 +10.0 79 +14 +14 1012.9 1001.9
20 16.08 Ю 2-4
{4}
н/о н/о +11.7 +9.4 86 +11 +11 1013.4 1002.3
21 16.08 ЮЗ 2-3
{5}
н/о н/о +11.1 +8.9 86 +10 +10 1013.9 1002.8
22 16.08 Ю 2 н/о н/о +11.4 +9.4 88 +10 +10 1014.0 1003.0
23 16.08 Ю 2 н/о н/о +11.4 +10.3 93 +10 +10 1014.3 1003.2
00 17.08 ЮВ 1-3
{3}
н/о н/о +12.3 +11.0 92 +12 +12 1014.5 1003.4
01 17.08 ЮВ 1 н/о н/о +13.0 +11.4 90 +13 +13 1014.4 1003.4
02 17.08 ЮВ 1-3
{3}
н/о н/о +13.4 +11.7 89 +14 +14 1014.6 1003.6
03 17.08 Ю 2 н/о н/о +14.1 +11.9 87 +14 +14 1014.4 1003.5
04 17.08 Ю 2 н/о н/о +14.6 +11.5 82 +14 +14 1014.4 1003.5
07 17.08 н/о н/о +17.6 +12.3 71 1014.2 1003.3
08 17.08 ЮВ 1 н/о н/о +18.2 +12.9 71 +20 +20 1014.0 1003.2
09 17.08 Ю 3-8
{8}
н/о н/о +19.8 +11.7 60 +22 +22 комфорт 1013.8 1003.1
10 17.08 Ю 3 н/о н/о +19.7 +11.8 60 +21 +21 комфорт 1013.9 1003.2
11 17.08 ЮВ 3 н/о н/о +20.7 +12.1 58 +23 +23 комфорт 1013.6 1002.9
12 17.08 ЮВ 2-6
{9}
н/о н/о +21.9 +12.2 54 +24 +24 комфорт 1013.4 1002.7
13 17.08 Ю 3-6
{8}
н/о н/о +22.0 +12.4 54 +24 +24 комфорт 1013.1 1002.5
14 17.08 Ю 3 н/о н/о +20.8 +13.4 63 +24 +24 комфорт 1012.9 1002.2
15 17.08 ЮВ 1-3
{8}
н/о н/о +17.9 +15.3 85 +19 +19 1012.9 1002.1 0.9
16 17.08 В 2 н/о н/о +18.3 +15.5 84 +19 +19 1012.5 1001.7
17 17.08 ЮВ 2-4
{4}
н/о н/о +19.4 +14.8 75 +22 +22 комфорт 1012.5 1001.8
18 17.08 Ю 1-5
{5}
н/о н/о +18.0 +13.5 75 +19 +19 1012.8 1002.0
19 17.08 ЮВ 1 н/о н/о +17.6 +12.7 73 +19 +19 1013.0 1002.2
20 17.08 ЮВ 1 н/о н/о +16.6 +12.4 76 +17 +17 1013.4 1002.6
21 17.08 ЮВ 1-3
{4}
н/о н/о +16.1 +12.3 78 +17 +17 1013.6 1002.8
22 17.08 Ю 2 н/о н/о +16.4 +12.3 77 +17 +17 1013.7 1002.9
23 17.08 Ю 2-4
{4}
н/о н/о +16.1 +12.2 78 +16 +16 1014.0 1003.2
00 18.08 ЮВ 1-3
{3}
н/о н/о +15.1 +11.7 80 +16 +16 1014.1 1003.2
01 18.08 Ю 2 н/о н/о +15.5 +11.8 79 +15 +15 1014.0 1003.2
02 18.08 Ю 2-4
{5}
н/о н/о +15.9 +11.3 74 +16 +16 1013.9 1003.0
03 18.08 ЮВ 1-3
{3}
н/о н/о +15.3 +11.2 77 +16 +16 1013.9 1003.0
04 18.08 Ю 1-4
{4}
н/о н/о +15.5 +11.3 76 +16 +16 1013.9 1003.0
05 18.08 ЮВ 1 н/о н/о +17.2 +11.6 70 +18 +18 1013.8 1003.0
06 18.08 Ю 2-5
{6}
н/о н/о +18.3 +12.1 67 +19 +19 1013.8 1003.0 +14.9 +18.3
07 18.08 ЮВ 2 н/о н/о +19.2 +12.4 65 +21 +21 комфорт 1013.7 1002.9
08 18.08 В 3-7
{9}
н/о н/о +20.9 +11.7 56 +23 +23 комфорт 1013.2 1002.5
09 18.08 ЮВ 3-9
{9}
н/о н/о +21.8 +10.8 50 +24 +24 комфорт 1013.2 1002.5
10 18.08 В 3-10
{11}
н/о н/о +22.8 +9.8 44 +25 +25 комфорт 1013.0 1002.3
11 18.08 ЮВ 4 н/о н/о +22.7 +10.1 45 +25 +25 комфорт 1012.7 1002.1
12 18.08 ЮВ 3-10
{10}
н/о н/о +22.8 +8.8 41 +24 +24 комфорт 1012.6 1002.0
13 18.08 ЮВ 3-8
{9}
н/о н/о +22.4 +8.9 42 +24 +24 комфорт 1012.3 1001.7
14 18.08 ЮВ 3-8
{9}
н/о н/о +22.6 +8.2 40 +24 +24 комфорт 1012.1 1001.5
15 18.08 ЮВ 2-7
{9}
н/о н/о +21.0 +8.1 43 +23 +23 комфорт 1012.0 1001.3
16 18.08 ЮВ 2 н/о н/о +20.6 +9.0 47 +23 +23 комфорт 1011.9 1001.2
17 18.08 ЮВ 2 н/о н/о +19.7 +9.1 50 +21 +21 комфорт 1011.9 1001.2
18 18.08 ЮВ 2-5
{6}
н/о н/о +18.2 +9.3 56 +19 +19 1011.9 1001.2 +18.0 +23.0
19 18.08 ЮВ 2-6
{6}
н/о н/о +17.4 +8.8 57 +18 +18 1011.6 1000.8
20 18.08 ЮВ 2 н/о н/о +15.7 +8.8 64 +16 +16 1011.5 1000.7
21 18.08 ЮВ 2-5
{5}
н/о н/о +15.2 +8.9 66 +15 +15 1011.3 1000.4
22 18.08 ЮВ 2 н/о н/о +14.8 +8.6 66 +15 +15 1011.1 1000.2
23 18.08 ЮВ 3-5
{5}
н/о н/о +14.7 +8.7 67 +14 +14 1010.7 999.8
00 19.08 ЮВ 3-5
{5}
н/о н/о +14.2 +9.0 71 +13 +13 1010.7 999.8
01 19.08 ЮВ 2-4
{5}
н/о н/о +13.9 +9.2 73 +13 +13 1010.3 999.3
02 19.08 ЮВ 3 н/о н/о +13.4 +9.5 77 +12 +12 1009.7 998.8
03 19.08 В 4-5
{6}
н/о н/о +13.3 +9.7 79 +12 +12 1009.3 998.4
04 19.08 В 3 н/о н/о +14.2 +10.3 77 +13 +13 1008.9 998.0
05 19.08 ЮВ 2 н/о н/о +15.0 +10.8 76 +15 +15 1008.3 997.5
06 19.08 ЮВ 2-6
{6}
н/о н/о +16.7 +11.2 70 +17 +17 1007.7 996.9 +13.1 +18.3
07 19.08 ЮВ 2 н/о н/о +15.3 +12.5 83 +15 +15 1007.7 996.8
08 19.08 ЮВ 3 н/о н/о +16.1 +12.8 81 +16 +16 1006.8 996.0
09 19.08 ЮВ 3-7
{9}
н/о н/о +17.1 +12.8 76 +17 +17 1006.1 995.4
10 19.08 ЮВ 3-7
{8}
н/о н/о +17.0 +12.8 76 +17 +17 1006.0 995.3
11 19.08 ЮВ 4 н/о н/о +17.7 +12.8 73 +17 +17 1005.8 995.1
12 19.08 Ю 4-9
{11}
н/о н/о +17.4 +13.4 77 +17 +17 1006.1 995.3
13 19.08 Ю 5 н/о н/о +16.8 +13.9 83 +16 +16 1006.5 995.7
14 19.08 Ю 4 н/о н/о +16.2 +14.8 91 +15 +15 1006.8 996.0
15 19.08 Ю 3-7
{8}
н/о н/о +16.6 +15.2 91 +16 +16 1007.0 996.2
16 19.08 Ю 3-5
{7}
н/о н/о +16.9 +15.0 89 +17 +17 1007.5 996.7
17 19.08 Ю 3 н/о н/о +17.6 +15.3 86 +18 +18 1007.5 996.8
18 19.08 Ю 2-4
{7}
н/о н/о +16.9 +15.2 90 +17 +17 1007.9 997.1 +15.1 +17.8 0.4
19 19.08 Ю 2 н/о н/о +16.6 +15.2 91 +17 +17 1008.2 997.4
20 19.08 Ю 2-3
{5}
н/о н/о +16.3 +15.1 93 +16 +16 1008.8 998.0
21 19.08 ЮЗ 2-3
{4}
н/о н/о +15.3 +14.7 96 +15 +15 1009.6 998.7
22 19.08 ЮЗ 2 н/о н/о +14.2 +13.8 97 +14 +14 1010.3 999.3
23 19.08 ЮЗ 2 н/о н/о +13.9 +12.0 88 +13 +13 1010.6 999.7
00 20.08 ЮЗ 2-3
{4}
н/о н/о +12.5 +11.3 92 +12 +12 1010.9 999.9
01 20.08 Ю 3-4
{5}
н/о н/о +13.0 +11.4 90 +12 +12 1011.2 1000.2
02 20.08 Ю 3 н/о н/о +13.0 +11.2 89 +12 +12 1011.6 1000.6
03 20.08 Ю 2-5
{5}
н/о н/о +13.0 +11.3 89 +12 +12 1011.9 1001.0
04 20.08 ЮЗ 2 н/о н/о +13.6 +11.7 88 +13 +13 1012.2 1001.2
05 20.08 ЮЗ 4-7
{7}
н/о н/о +14.5 +12.1 86 +13 +13 1012.6 1001.7
06 20.08 ЮЗ 4-7
{8}
н/о н/о +15.8 +12.6 81 +15 +15 1012.7 1001.8 +12.2 +16.9
07 20.08 ЮЗ 3 н/о н/о +17.0 +12.5 75 +17 +17 1013.1 1002.2
08 20.08 ЮЗ 4 н/о н/о +18.2 +12.6 70 +18 +18 1013.4 1002.7
09 20.08 Ю 5-9
{12}
н/о н/о +17.2 +11.6 70 +17 +17 1014.2 1003.4
10 20.08 ЮЗ 4 н/о н/о +17.7 +12.3 71 +17 +17 1014.4 1003.5
11 20.08 ЮЗ 5 н/о н/о +18.9 +12.4 66 +19 +19 1014.5 1003.7
12 20.08 Ю 3-5
{8}
н/о н/о +19.0 +12.6 66 +20 +20 1014.5 1003.7
13 20.08 Ю 4-7
{9}
н/о н/о +19.9 +13.0 64 +22 +22 комфорт 1014.5 1003.7
14 20.08 Ю 3-6
{7}
н/о н/о +20.5 +11.9 58 +23 +23 комфорт 1014.3 1003.6
15 20.08 Ю 2-4
{6}
н/о н/о +18.3 +13.5 74 +19 +19 1014.7 1003.9
16 20.08 ЮВ 2 н/о н/о +19.2 +14.2 73 +21 +21 комфорт 1015.1 1004.3
17 20.08 Ю 2 н/о н/о +17.7 +14.7 83 +18 +18 1015.3 1004.5
18 20.08 ЮВ 1-2
{4}
н/о н/о +16.0 +14.5 91 +17 +17 1015.7 1004.8 +15.8 +20.7 0.5
19 20.08 ЮВ 1 н/о н/о +15.1 +14.2 94 +16 +16 1016.0 1005.1
20 20.08 Ю 3 н/о н/о +15.8 +13.5 86 +15 +15 1016.5 1005.6
21 20.08 Ю 3-5
{7}
н/о н/о +15.1 +12.0 82 +14 +14 1017.0 1006.1
22 20.08 Ю 3 н/о н/о +14.8 +11.7 82 +14 +14 1017.1 1006.2
23 20.08 Ю 2 н/о н/о +13.6 +11.5 87 +13 +13 1017.3 1006.3
00 21.08 ЮЗ 3-5
{5}
н/о н/о +13.8 +11.4 85 +13 +13 1017.8 1006.8
01 21.08 Ю 2 н/о н/о +13.2 +11.1 87 +12 +12 1017.9 1006.9
02 21.08 Ю 3-5
{6}
н/о н/о +13.4 +11.4 88 +12 +12 1018.2 1007.2
03 21.08 Ю 3-5
{6}
н/о н/о +12.9 +11.5 91 +11 +11 1018.6 1007.5
04 21.08 Ю 2-5
{5}
н/о н/о +13.1 +11.7 91 +12 +12 1018.7 1007.7
05 21.08 Ю 2 н/о н/о +14.0 +12.1 88 +13 +13 1019.1 1008.1
06 21.08 Ю 3-5
{5}
н/о н/о +15.8 +12.3 80 +15 +15 1019.2 1008.3 +12.9 +16.3
07 21.08 Ю 2 н/о н/о +16.5 +12.6 78 +17 +17 1019.4 1008.5
08 21.08 ЮЗ 4-9
{9}
н/о н/о +17.2 +12.3 73 +17 +17 1019.7 1008.8
09 21.08 Ю 3-7
{9}
н/о н/о +16.8 +12.5 76 +17 +17 1020.1 1009.2
10 21.08 Ю 4 н/о н/о +17.3 +12.3 72 +17 +17 1019.9 1009.0
11 21.08 Ю 4 н/о н/о +18.6 +12.0 65 +19 +19 1019.9 1009.0
12 21.08 Ю 3-7
{7}
н/о н/о +19.0 +11.8 63 +20 +20 1019.2 1008.4
13 21.08 Ю 3 н/о н/о +19.1 +11.4 61 +20 +20 1018.7 1007.8
14 21.08 ЮЗ 3-5
{6}
н/о н/о +20.4 +11.2 55 +22 +22 комфорт 1018.3 1007.6
15 21.08 Ю 3-6
{6}
н/о н/о +20.0 +12.0 60 +22 +22 комфорт 1018.0 1007.3
16 21.08 Ю 1 н/о н/о +18.4 +12.3 68 +20 +20 1018.2 1007.4
17 21.08 Ю 2 н/о н/о +17.3 +12.8 75 +18 +18 1018.1 1007.2
18 21.08 Ю 3-5
{5}
н/о н/о +16.7 +12.5 76 +16 +16 1018.1 1007.2 +15.7 +20.9
19 21.08 Ю 1 н/о н/о +15.7 +12.2 80 +16 +16 1017.9 1006.9
20 21.08 Ю 2 н/о н/о +14.7 +12.6 87 +14 +14 1018.1 1007.1
21 21.08 З 1-2
{4}
н/о н/о +13.2 +11.3 88 +13 +13 1017.9 1006.9
22 21.08 Ю 2 н/о н/о +12.6 +11.4 92 +12 +12 1017.6 1006.5
23 21.08 ЮЗ 1-2
{3}
н/о н/о +12.1 +11.1 94 +12 +12 1017.4 1006.3
00 22.08 ЮЗ 1-2
{2}
н/о н/о +9.8 +9.5 98 +9 +9 1017.6 1006.5
01 22.08 З 2-3
{3}
н/о н/о +11.9 +11.4 97 +11 +11 1017.5 1006.4

 

Местоположение метеостанции Куопио Маанинка (Финляндия): широта 63.14 долгота 27.31 высота над уровнем моря 90 м.

В архиве по умолчанию представлена погода в Куопио Маанинка за последнюю неделю. Архивные данные за месяц целиком и за предыдущие месяцы, начиная с января 2011 года, Вы можете получить, выбрав интересующий диапазон дат из раскрывающегося списка и нажав кнопку "Ввод!".


*Определитесь, кто Вы:
робот инопланетянин человек

Внимание! Время в таблицах - всемирное. Для получения местного времени необходимо прибавить поправку, которая равна 1 ч.

Смотрите также архив погоды в соседних городах и на ближайших метеорологических станциях:

Погода в Аэропорту Куопио (Финляндия) (29 км)
Погода в Куопио Савилахти (Финляндия) (32 км)
Погода в Куопио Ритониеми (Финляндия) (48 км)
Погода в Весанто (Финляндия) (51 км)
Погода в Раутаваара Яла-Луоста (Финляндия) (73 км)
Погода в Вийтасаари (Финляндия) (73 км)
Погода в Виерема Каараккала (Финляндия) (78 км)
Погода в Валтимо (Финляндия) (96 км)
Погода в Варкаусе (Финляндия) (96 км)
Погода в Юуке (Финляндия) (97 км)

Пояснения к столбцам:

Ветер - указаны скорость ветра в м/с - средняя за 10 мин, порывы в срок и между сроками (в фигурных скобках) и направление, откуда дует ветер: С - северный, СВ - северо-восточный, В - восточный, ЮВ - юго-восточный, Ю - южный, ЮЗ - юго-западный, З - западный, СЗ - северо-западный.
Видимость - горизонтальная дальность видимости в метрах или километрах. При видимости от 1 до 10 км при отсутствии осадков обычно наблюдается дымка, при ухудшении видимости до 1 км и менее - туман. В сухую погоду видимость может ухудшаться дымом, пылью или мглою.
Явления - указаны атмосферные явления, наблюдавшиеся в срок или в последний час перед сроком; фигурными скобками обозначены явления, наблюдавшиеся между сроками (за 1-3 часа до срока); квадратными скобками обозначены град или гололедные отложения с указанием их диаметра в мм.
Облачность - указаны через наклонную черту общая и нижняя облачность в баллах и высота нижней границы облаков в метрах; квадратными скобками обозначены формы облаков: Ci - перистые, Cs - перисто-слоистые, Cc - перисто-кучевые, Ac - высококучевые, As - высокослоистые, Sc - слоисто-кучевые, Ns - слоисто-дождевые, Cu - кучевые, Cb - кучево-дождевые. Подробнее классификацию облаков см. в Атласе облаков (PDF).
T - Температура воздуха - температура, измеренная на высоте 2 м над землей.
Td - Температура точки росы - температура, при понижении до которой содержащийся в воздухе водяной пар достигнет насыщения.
f - Относительная влажность воздуха - влажноcть воздуха, измеренная на высоте 2 м над землей.
Te - Эффективная температура - температура, которую ощущает одетый по сезону человек в тени. Характеристика душности погоды. При расчете учитывается влияние влажности воздуха и скорости ветра на теплоощущения человека.
Tes - Эффективная температура на солнце - температура, которую ощущает человек, с поправкой на солнечный нагрев. Характеристика знойности погоды. Зависит от высоты солнца над горизонтом, облачности и скорости ветра. Ночью, в пасмурную погоду, а также при ветре 12 м/с и более поправка равна нулю.
P - Атмосферное давление - приведенное к уровню моря атмосферное давление.
Po - Атмосферное давление - измеренное на уровне метеостанции атмосферное давление.
Tmin - Минимальная температура - минимум температуры воздуха на высоте 2 м над землей.
Tmax - Максимальная температура - максимум температуры воздуха на высоте 2 м над землей.
R - Количество осадков - Количество выпавших осадков за период времени, мм. При наведении курсора мыши на число - период времени, за который выпало указанное количество осадков.
R24 - Количество осадков - Количество выпавших осадков за 24 часа, мм.
S - Снежный покров - Высота снежного покрова, см. При наведении курсора мыши на число - состояние снежного покрова и степень покрытия местности в баллах.